Find Starlink 35254

NORAD ID: 65674 Int'l Des: 2025-211 Owner: SPXS Country: US Constellation: starlink operational
LEOCIRCULARRETROGRADESSO

Live-Position

3D-Globus wird geladen...

Über Starlink 35254

Beschreibung wird geladen...

Nächste Überflüge

Passes for default location (London). Set your location on the main map for personalized predictions.

Höhenverlauf

Loading altitude history...

Zweizeiliger Elementsatz

1 65674U 25211Y 26106.60906602 .00004850 00000-0 34013-3 0 9994
2 65674 97.6044 151.5386 0001186 161.3488 198.7782 15.05648529 32750
Epoch: 16. Apr. 2026 • Age: 10 hours

Aktueller Status

Höhe 552.8 km
Geschwindigkeit 7.59 km/s
Subsatellitenpunkt 20.84°N, 60.32°W
Startdatum 19. Sept. 2025
Alter 0.5 years
Typ internet

Technische Details

Klassifizierung Payload
Masse 575.00 kg
Trockenmasse 530.00 kg
Gesamtmasse 575.00 kg
Länge 0.30 m
Durchmesser 4.10 m
Spannweite 29.00 m
Form Box + pan
Hersteller SPXS
Bus-Typ Starlink V2MO
Phasenstatus In Orbit
Besitzer/Staat SPXS/US

Most Searched